KD5UMO-1 Weather Reports


time (UTC)temp
F
wind
direction
speed
knots
gust
knots
rain 1hr
in
rain 24hr
in
rain mn
in
humidity
%
barometer
mb
20211017160849 67 148 2.6 4.3 0.00 0.00 0.00 45 1025.9
20211017160714 67 160 1.7 3.5 0.00 0.00 0.00 44 1026.0
20211017160250 67 150 1.7 1.7 0.00 0.00 0.00 45 1026.0
20211017160212 67 150 1.7 1.7 0.00 0.00 0.00 45 1026.0
20211017155648 66 195 0.0 3.5 0.00 0.00 0.00 47 1026.1
20211017155048 66 169 2.6 2.6 0.00 0.00 0.00 49 1026.1
20211017154712 65 190 0.0 1.7 0.00 0.00 0.00 48 1026.2
20211017154449 65 190 0.0 0.0 0.00 0.00 0.00 47 1026.1
20211017154213 65 190 0.0 0.0 0.00 0.00 0.00 48 1026.2
20211017153850 65 190 0.0 0.9 0.00 0.00 0.00 50 1026.2
20211017153714 65 190 0.9 2.6 0.00 0.00 0.00 50 1026.2
20211017153249 64 186 0.0 0.0 0.00 0.00 0.00 51 1026.4
20211017153212 64 186 0.0 0.0 0.00 0.00 0.00 51 1026.4
20211017152649 64 186 0.0 0.9 0.00 0.00 0.00 51 1026.4
20211017152049 63 197 0.0 1.7 0.00 0.00 0.00 52 1026.4
20211017151449 62 200 2.6 2.6 0.00 0.00 0.00 55 1026.4
20211017150848 62 203 1.7 1.7 0.00 0.00 0.00 57 1026.4
20211017150713 61 203 0.9 2.6 0.00 0.00 0.00 57 1026.4
20211017150249 61 168 0.0 0.0 0.00 0.00 0.00 58 1026.4
20211017150213 61 168 0.0 0.0 0.00 0.00 0.00 58 1026.4
20211017145712 60 201 0.0 2.6 0.00 0.00 0.00 62 1026.4
20211017145650 59 9 0.9 0.9 0.00 0.00 0.00 64 1026.4
20211017145213 59 9 0.0 0.0 0.00 0.00 0.00 67 1026.3
20211017145050 58 9 0.0 0.0 0.00 0.00 0.00 68 1026.3
20211017144714 58 9 0.0 0.0 0.00 0.00 0.00 71 1026.3
20211017144449 57 9 0.0 0.0 0.00 0.00 0.00 72 1026.2
20211017144214 56 9 0.0 0.0 0.00 0.00 0.00 73 1026.2
20211017143849 56 9 0.0 0.0 0.00 0.00 0.00 75 1026.1
20211017143713 56 9 0.0 0.0 0.00 0.00 0.00 76 1026.1
20211017143249 54 9 0.0 0.0 0.00 0.00 0.00 78 1026.1
20211017143212 54 9 0.0 0.0 0.00 0.00 0.00 78 1026.1
20211017142712 54 9 0.0 0.0 0.00 0.00 0.00 82 1026.1
20211017142649 53 9 0.0 0.0 0.00 0.00 0.00 83 1026.1
20211017142215 52 9 0.0 0.0 0.00 0.00 0.00 87 1026.1
20211017142049 52 9 0.0 0.0 0.00 0.00 0.00 88 1026.1
20211017141714 52 9 0.0 0.0 0.00 0.00 0.00 88 1026.0
20211017141450 51 9 0.0 0.0 0.00 0.00 0.00 89 1026.0
20211017141214 51 9 0.0 0.0 0.00 0.00 0.00 89 1026.0
20211017140849 50 9 0.0 0.0 0.00 0.00 0.00 88 1026.0
20211017140713 50 9 0.0 0.0 0.00 0.00 0.00 89 1025.9
20211017140250 49 9 0.0 0.0 0.00 0.00 0.00 89 1025.8
20211017135648 49 9 0.0 0.0 0.00 0.00 0.00 89 1025.8
20211017135213 48 9 0.0 0.0 0.00 0.00 0.00 89 1025.8
20211017135048 48 9 0.0 0.0 0.00 0.00 0.00 89 1025.8
20211017134449 48 9 0.0 0.0 0.00 0.00 0.00 90 1025.7
20211017134212 47 9 0.0 0.0 0.00 0.00 0.00 90 1025.7
20211017133850 47 9 0.0 0.0 0.00 0.00 0.00 90 1025.6
20211017133714 47 9 0.0 0.0 0.00 0.00 0.00 90 1025.6
20211017133249 46 9 0.0 0.0 0.00 0.00 0.00 90 1025.5
20211017132713 46 9 0.0 0.0 0.00 0.00 0.00 90 1025.4
20211017132649 46 9 0.0 0.0 0.00 0.00 0.00 90 1025.4
20211017132050 45 9 0.0 0.0 0.00 0.00 0.00 90 1025.3
20211017131449 44 9 0.0 0.0 0.00 0.00 0.00 90 1025.2
20211017131213 44 9 0.0 0.0 0.00 0.00 0.00 90 1025.1
20211017130848 44 9 0.0 0.0 0.00 0.00 0.00 89 1025.1
20211017130713 44 9 0.0 0.0 0.00 0.00 0.00 89 1025.1
20211017130248 44 9 0.0 0.0 0.00 0.00 0.00 89 1025.1
20211017125712 44 9 0.0 0.0 0.00 0.00 0.00 89 1025.1
20211017125649 44 9 0.0 0.0 0.00 0.00 0.00 89 1025.0
20211017125214 44 9 0.0 0.0 0.00 0.00 0.00 89 1025.1
20211017125049 44 9 0.0 0.0 0.00 0.00 0.00 89 1025.0
20211017124713 44 9 0.0 0.0 0.00 0.00 0.00 89 1025.0
20211017124450 44 9 0.0 0.0 0.00 0.00 0.00 88 1025.0
20211017123849 44 9 0.0 0.0 0.00 0.00 0.00 88 1025.0
20211017123712 44 9 0.0 0.0 0.00 0.00 0.00 88 1025.0
20211017123249 44 9 0.0 0.0 0.00 0.00 0.00 88 1025.0
20211017123213 44 9 0.0 0.0 0.00 0.00 0.00 88 1025.0
20211017122712 44 9 0.0 0.0 0.00 0.00 0.00 89 1025.0
20211017122650 44 9 0.0 0.0 0.00 0.00 0.00 89 1025.0
20211017122214 44 9 0.0 0.0 0.00 0.00 0.00 88 1025.0
20211017122050 44 9 0.0 0.0 0.00 0.00 0.00 88 1025.1
20211017121450 44 9 0.0 0.0 0.00 0.00 0.00 88 1025.1
20211017121214 44 9 0.0 0.0 0.00 0.00 0.00 88 1025.0
20211017120850 44 9 0.0 0.0 0.00 0.00 0.00 87 1024.9
20211017120714 44 9 0.0 0.0 0.00 0.00 0.00 87 1024.9
20211017120250 44 9 0.0 0.0 0.00 0.00 0.00 87 1025.0
20211017115713 44 9 0.0 0.0 0.00 0.00 0.00 87 1025.0
20211017115649 44 9 0.0 0.0 0.00 0.00 0.00 87 1025.0
20211017115214 44 9 0.0 0.0 0.00 0.00 0.00 87 1025.1
20211017115049 44 9 0.0 0.0 0.00 0.00 0.00 87 1025.0
20211017114713 44 9 0.0 0.0 0.00 0.00 0.00 87 1025.0
20211017114448 44 9 0.0 0.0 0.00 0.00 0.00 87 1025.0
20211017113851 44 9 0.0 0.0 0.00 0.00 0.00 87 1025.0
20211017113714 44 9 0.0 0.0 0.00 0.00 0.00 87 1025.0
20211017113250 44 9 0.0 0.0 0.00 0.00 0.00 87 1025.0
20211017113213 44 9 0.0 0.0 0.00 0.00 0.00 87 1025.0
20211017112714 44 9 0.0 0.0 0.00 0.00 0.00 87 1024.8
20211017112649 44 9 0.0 0.0 0.00 0.00 0.00 87 1024.9
20211017112212 44 9 0.0 0.0 0.00 0.00 0.00 87 1024.8
20211017112050 44 9 0.0 0.0 0.00 0.00 0.00 87 1024.8
20211017111714 44 9 0.0 0.0 0.00 0.00 0.00 87 1024.8
20211017111450 44 9 0.0 0.0 0.00 0.00 0.00 87 1024.7
20211017111213 45 9 0.0 0.0 0.00 0.00 0.00 87 1024.7
20211017110849 45 9 0.0 0.0 0.00 0.00 0.00 87 1024.7
20211017110712 45 9 0.0 0.0 0.00 0.00 0.00 87 1024.7
20211017110250 45 9 0.0 0.0 0.00 0.00 0.00 86 1024.7
20211017110213 45 9 0.0 0.0 0.00 0.00 0.00 86 1024.7
20211017105712 45 9 0.0 0.0 0.00 0.00 0.00 86 1024.6
20211017105649 45 9 0.0 0.0 0.00 0.00 0.00 86 1024.7
20211017105213 45 9 0.0 0.0 0.00 0.00 0.00 86 1024.6
20211017105050 45 9 0.0 0.0 0.00 0.00 0.00 86 1024.6
20211017104713 45 9 0.0 0.0 0.00 0.00 0.00 86 1024.6
20211017104449 45 9 0.0 0.0 0.00 0.00 0.00 86 1024.7
20211017104214 45 9 0.0 0.0 0.00 0.00 0.00 86 1024.7
20211017103849 45 9 0.0 0.0 0.00 0.00 0.00 85 1024.7
20211017103250 45 9 0.0 0.0 0.00 0.00 0.00 85 1024.7
20211017103213 45 9 0.0 0.0 0.00 0.00 0.00 85 1024.7
20211017102712 45 9 0.0 0.0 0.00 0.00 0.00 85 1024.8
20211017102650 45 9 0.0 0.0 0.00 0.00 0.00 85 1024.8
20211017102213 45 9 0.0 0.0 0.00 0.00 0.00 85 1024.8
20211017102050 45 9 0.0 0.0 0.00 0.00 0.00 85 1024.8
20211017101449 45 9 0.0 0.0 0.00 0.00 0.00 85 1024.9
20211017101212 45 9 0.0 0.0 0.00 0.00 0.00 85 1024.9
20211017100849 45 9 0.0 0.0 0.00 0.00 0.00 85 1025.0
20211017100714 45 9 0.0 0.0 0.00 0.00 0.00 85 1025.0
20211017100250 45 9 0.0 0.0 0.00 0.00 0.00 84 1024.8
20211017095713 45 9 0.0 0.0 0.00 0.00 0.00 84 1024.9
20211017095650 45 9 0.0 0.0 0.00 0.00 0.00 84 1024.9
20211017095214 45 9 0.0 0.0 0.00 0.00 0.00 84 1024.8
20211017095049 45 9 0.0 0.0 0.00 0.00 0.00 84 1024.8
20211017094714 45 9 0.0 0.0 0.00 0.00 0.00 84 1024.8
20211017094450 45 9 0.0 0.0 0.00 0.00 0.00 84 1024.8
20211017094212 46 9 0.0 0.0 0.00 0.00 0.00 84 1024.8
20211017093849 46 9 0.0 0.0 0.00 0.00 0.00 84 1024.9
20211017093712 46 9 0.0 0.0 0.00 0.00 0.00 84 1024.9
20211017093250 46 9 0.0 0.0 0.00 0.00 0.00 84 1024.9
20211017093212 46 9 0.0 0.0 0.00 0.00 0.00 84 1024.9
20211017092713 46 9 0.0 0.0 0.00 0.00 0.00 83 1025.0
20211017092650 46 9 0.0 0.0 0.00 0.00 0.00 83 1025.0
20211017092213 46 9 0.0 0.0 0.00 0.00 0.00 83 1025.0
20211017092050 46 9 0.0 0.0 0.00 0.00 0.00 83 1025.0
20211017091449 46 9 0.0 0.0 0.00 0.00 0.00 83 1025.1
20211017091213 46 9 0.0 0.0 0.00 0.00 0.00 83 1025.1
20211017090850 46 9 0.0 0.0 0.00 0.00 0.00 82 1025.1
20211017090714 46 9 0.0 0.0 0.00 0.00 0.00 82 1025.1
20211017090250 46 9 0.0 0.0 0.00 0.00 0.00 82 1025.0
20211017085713 46 9 0.0 0.0 0.00 0.00 0.00 82 1025.0
20211017085649 46 9 0.0 0.0 0.00 0.00 0.00 82 1025.0
20211017085049 47 9 0.0 0.0 0.00 0.00 0.00 81 1024.8
20211017084713 47 9 0.0 0.0 0.00 0.00 0.00 81 1024.8
20211017084449 47 9 0.0 0.0 0.00 0.00 0.00 81 1024.8
20211017084213 47 9 0.0 0.0 0.00 0.00 0.00 81 1024.8
20211017083849 47 9 0.0 0.0 0.00 0.00 0.00 81 1024.9
20211017083714 47 9 0.0 0.0 0.00 0.00 0.00 81 1024.8
20211017083249 47 9 0.0 0.0 0.00 0.00 0.00 81 1024.9
20211017083213 47 9 0.0 0.0 0.00 0.00 0.00 81 1024.9
20211017082713 47 9 0.0 0.0 0.00 0.00 0.00 81 1024.8
20211017082649 47 9 0.0 0.0 0.00 0.00 0.00 81 1024.9
20211017082214 48 9 0.0 0.0 0.00 0.00 0.00 81 1024.9
20211017082050 48 9 0.0 0.0 0.00 0.00 0.00 82 1025.0
20211017081449 48 9 0.0 0.0 0.00 0.00 0.00 81 1024.9
20211017081213 48 9 0.0 0.0 0.00 0.00 0.00 82 1025.0
20211017080849 48 9 0.0 0.0 0.00 0.00 0.00 82 1024.9
20211017080713 48 9 0.0 0.0 0.00 0.00 0.00 82 1025.0
20211017080249 48 9 0.0 0.0 0.00 0.00 0.00 83 1025.0
20211017080213 48 9 0.0 0.0 0.00 0.00 0.00 83 1025.0
20211017075713 48 9 0.0 0.0 0.00 0.00 0.00 82 1025.0
20211017075650 48 9 0.0 0.0 0.00 0.00 0.00 82 1025.0
20211017075213 48 9 0.0 0.0 0.00 0.00 0.00 82 1025.0
20211017075049 48 9 0.0 0.0 0.00 0.00 0.00 82 1024.9
20211017074712 48 9 0.0 0.0 0.00 0.00 0.00 82 1024.8
20211017074449 48 9 0.0 0.0 0.00 0.00 0.00 82 1025.0
20211017074212 48 9 0.0 0.0 0.00 0.00 0.00 82 1024.9
20211017073849 48 9 0.0 0.0 0.00 0.00 0.00 82 1024.9
20211017073713 48 9 0.0 0.0 0.00 0.00 0.00 82 1024.8
20211017073250 48 9 0.0 0.0 0.00 0.00 0.00 82 1024.9
20211017072712 48 9 0.0 0.0 0.00 0.00 0.00 81 1024.9
20211017072650 48 9 0.0 0.0 0.00 0.00 0.00 81 1024.9
20211017072050 48 9 0.0 0.0 0.00 0.00 0.00 81 1024.9
20211017071713 49 9 0.0 0.0 0.00 0.00 0.00 81 1025.0
20211017071449 49 9 0.0 0.0 0.00 0.00 0.00 81 1025.0
20211017070849 49 9 0.0 0.0 0.00 0.00 0.00 81 1024.9
20211017070713 49 9 0.0 0.0 0.00 0.00 0.00 81 1024.9
20211017070249 49 9 0.0 0.0 0.00 0.00 0.00 81 1024.8
20211017065649 49 9 0.0 0.0 0.00 0.00 0.00 81 1024.8
20211017065047 49 9 0.0 0.0 0.00 0.00 0.00 80 1024.8
20211017064711 49 9 0.0 0.0 0.00 0.00 0.00 80 1024.8
20211017064447 49 9 0.0 0.0 0.00 0.00 0.00 80 1024.8
20211017064210 49 9 0.0 0.0 0.00 0.00 0.00 80 1024.7
20211017063849 50 9 0.0 0.0 0.00 0.00 0.00 79 1024.9
20211017063713 50 9 0.0 0.0 0.00 0.00 0.00 79 1024.8
20211017063249 50 9 0.0 0.0 0.00 0.00 0.00 79 1024.7
20211017063213 50 9 0.0 0.0 0.00 0.00 0.00 79 1024.7
20211017062647 50 9 0.0 0.0 0.00 0.00 0.00 80 1024.7
20211017062212 50 9 0.0 0.0 0.00 0.00 0.00 80 1024.6
20211017062048 50 9 0.0 0.0 0.00 0.00 0.00 79 1024.7
20211017061712 50 9 0.0 0.0 0.00 0.00 0.00 79 1024.7
20211017061447 50 9 0.0 0.0 0.00 0.00 0.00 79 1024.6
20211017061212 50 9 0.0 0.0 0.00 0.00 0.00 79 1024.6
20211017060848 50 9 0.0 0.0 0.00 0.00 0.00 79 1024.6
20211017060711 50 9 0.0 0.0 0.00 0.00 0.00 79 1024.6
20211017060247 50 9 0.0 0.0 0.00 0.00 0.00 78 1024.6
20211017060212 50 9 0.0 0.0 0.00 0.00 0.00 78 1024.6
20211017055711 50 9 0.0 0.0 0.00 0.00 0.00 78 1024.6
20211017055648 50 9 0.0 0.0 0.00 0.00 0.00 77 1024.5
20211017055211 50 9 0.0 0.0 0.00 0.00 0.00 77 1024.5
20211017055048 50 9 0.0 0.0 0.00 0.00 0.00 77 1024.5
20211017054710 51 9 0.0 0.0 0.00 0.00 0.00 77 1024.5
20211017054449 51 9 0.0 0.0 0.00 0.00 0.00 77 1024.5
20211017054211 51 9 0.0 0.0 0.00 0.00 0.00 77 1024.5
20211017053848 51 9 0.0 0.0 0.00 0.00 0.00 76 1024.5
20211017053711 51 9 0.0 0.0 0.00 0.00 0.00 76 1024.5
20211017053248 51 9 0.0 0.0 0.00 0.00 0.00 77 1024.6
20211017052711 51 9 0.0 0.0 0.00 0.00 0.00 76 1024.6
20211017052647 51 9 0.0 0.0 0.00 0.00 0.00 76 1024.6
20211017052212 51 9 0.0 0.0 0.00 0.00 0.00 76 1024.7
20211017052048 51 9 0.0 0.0 0.00 0.00 0.00 76 1024.6
20211017051447 51 9 0.0 0.0 0.00 0.00 0.00 76 1024.7
20211017050848 51 9 0.0 0.0 0.00 0.00 0.00 75 1024.8
20211017050711 51 9 0.0 0.0 0.00 0.00 0.00 76 1024.7
20211017050247 50 9 0.0 0.0 0.00 0.00 0.00 77 1024.6
20211017050211 50 9 0.0 0.0 0.00 0.00 0.00 77 1024.6
20211017045648 50 9 0.0 0.0 0.00 0.00 0.00 76 1024.7
20211017045211 51 9 0.0 0.0 0.00 0.00 0.00 76 1024.7
20211017045049 51 9 0.0 0.0 0.00 0.00 0.00 76 1024.7
20211017044712 51 9 0.0 0.0 0.00 0.00 0.00 75 1024.7
20211017044448 51 9 0.0 0.0 0.00 0.00 0.00 75 1024.7
20211017043848 51 9 0.0 0.0 0.00 0.00 0.00 75 1024.8
20211017043712 51 9 0.0 0.0 0.00 0.00 0.00 75 1024.8
20211017043249 51 9 0.0 0.0 0.00 0.00 0.00 74 1024.8
20211017042648 52 9 0.0 0.0 0.00 0.00 0.00 73 1024.9
20211017042212 52 9 0.0 0.0 0.00 0.00 0.00 73 1024.8
20211017042048 52 9 0.0 0.0 0.00 0.00 0.00 73 1024.9
20211017041447 52 9 0.0 0.0 0.00 0.00 0.00 73 1024.8
20211017040847 52 9 0.0 0.0 0.00 0.00 0.00 72 1025.0
20211017040248 52 9 0.0 0.0 0.00 0.00 0.00 72 1025.0
20211017035649 52 9 0.0 0.0 0.00 0.00 0.00 71 1024.9
20211017035212 52 9 0.0 0.0 0.00 0.00 0.00 72 1024.8
20211017035049 52 9 0.0 0.0 0.00 0.00 0.00 72 1024.8
20211017034449 52 9 0.0 0.0 0.00 0.00 0.00 72 1024.9
20211017033848 52 9 0.0 0.0 0.00 0.00 0.00 71 1024.8
20211017033249 53 9 0.0 0.0 0.00 0.00 0.00 71 1024.8
20211017033211 53 9 0.0 0.0 0.00 0.00 0.00 71 1024.8
20211017032647 53 9 0.0 0.0 0.00 0.00 0.00 70 1024.8
20211017032211 53 9 0.0 0.0 0.00 0.00 0.00 70 1024.8
20211017032047 53 9 0.0 0.0 0.00 0.00 0.00 70 1024.7
20211017031447 53 9 0.0 0.0 0.00 0.00 0.00 69 1024.8
20211017030848 54 9 0.0 0.0 0.00 0.00 0.00 68 1024.7
20211017030712 54 9 0.0 0.0 0.00 0.00 0.00 68 1024.7
20211017030249 54 9 0.0 0.0 0.00 0.00 0.00 68 1024.7
20211017030211 54 9 0.0 0.0 0.00 0.00 0.00 68 1024.7
20211017025648 54 9 0.0 0.0 0.00 0.00 0.00 68 1024.7
20211017025049 54 9 0.0 0.0 0.00 0.00 0.00 67 1024.7
20211017024449 55 9 0.0 0.0 0.00 0.00 0.00 66 1024.8
20211017024212 55 9 0.0 0.0 0.00 0.00 0.00 65 1024.7
20211017023847 55 9 0.0 0.0 0.00 0.00 0.00 65 1024.8
20211017023712 55 9 0.0 0.0 0.00 0.00 0.00 65 1024.8
20211017023248 55 9 0.0 0.0 0.00 0.00 0.00 65 1024.8
20211017023212 55 9 0.0 0.0 0.00 0.00 0.00 65 1024.8
20211017022712 55 9 0.0 0.0 0.00 0.00 0.00 64 1024.8
20211017022649 55 9 0.0 0.0 0.00 0.00 0.00 64 1024.8
20211017022049 56 9 0.0 0.0 0.00 0.00 0.00 64 1024.8
20211017021713 56 9 0.0 0.0 0.00 0.00 0.00 63 1024.9
20211017021449 56 9 0.0 0.0 0.00 0.00 0.00 62 1024.8
20211017020849 56 9 0.0 0.0 0.00 0.00 0.00 61 1024.8
20211017020713 56 9 0.0 0.0 0.00 0.00 0.00 61 1024.8
20211017020249 56 9 0.0 0.0 0.00 0.00 0.00 60 1024.6
20211017015649 57 9 0.0 0.0 0.00 0.00 0.00 59 1024.6
20211017015049 57 9 0.0 0.0 0.00 0.00 0.00 58 1024.5
20211017014450 58 9 0.0 0.0 0.00 0.00 0.00 56 1024.4
20211017013848 58 9 0.0 0.0 0.00 0.00 0.00 57 1024.4
20211017013249 58 9 0.0 0.0 0.00 0.00 0.00 55 1024.4
20211017012649 59 9 0.0 0.0 0.00 0.00 0.00 54 1024.4
20211017012048 59 9 0.0 0.0 0.00 0.00 0.00 52 1024.3
20211017011712 60 9 0.0 0.0 0.00 0.00 0.00 52 1024.3
20211017011448 60 9 0.0 0.0 0.00 0.00 0.00 52 1024.2
20211017010848 60 9 0.0 0.0 0.00 0.00 0.00 50 1024.1
20211017010712 61 9 0.0 0.0 0.00 0.00 0.00 50 1024.1
20211017010248 61 9 0.0 0.0 0.00 0.00 0.00 50 1024.1
20211017010213 61 9 0.0 0.0 0.00 0.00 0.00 50 1024.1
20211017005712 62 9 0.0 0.0 0.00 0.00 0.00 50 1024.1
20211017005647 62 9 0.0 0.0 0.00 0.00 0.00 49 1024.1
20211017005211 62 9 0.0 0.0 0.00 0.00 0.00 46 1024.0
20211017005048 62 9 0.0 0.0 0.00 0.00 0.00 47 1024.1
20211017004712 62 9 0.0 0.0 0.00 0.00 0.00 47 1024.1
20211017004447 63 9 0.0 0.0 0.00 0.00 0.00 45 1024.0
20211017004213 63 9 0.0 0.0 0.00 0.00 0.00 46 1024.0
20211017003848 63 9 0.0 0.0 0.00 0.00 0.00 45 1023.9
20211017003712 63 9 0.0 0.0 0.00 0.00 0.00 45 1023.9
20211017003248 64 9 0.0 0.0 0.00 0.00 0.00 45 1023.8
20211017002712 64 9 0.0 0.0 0.00 0.00 0.00 44 1023.8
20211017002649 64 9 0.0 0.0 0.00 0.00 0.00 45 1023.9
20211017002212 65 9 0.0 0.0 0.00 0.00 0.00 43 1023.8
20211017002048 65 9 0.0 0.0 0.00 0.00 0.00 42 1023.9
20211017001711 65 9 0.0 0.0 0.00 0.00 0.00 40 1023.8
20211017001448 65 9 0.0 0.0 0.00 0.00 0.00 41 1023.8
20211017001212 65 9 0.0 0.0 0.00 0.00 0.00 41 1023.8
20211017000848 66 9 0.0 0.0 0.00 0.00 0.00 40 1023.8
20211017000713 66 9 0.0 0.0 0.00 0.00 0.00 40 1023.8
20211017000248 66 9 0.0 2.6 0.00 0.00 0.00 39 1023.8
20211017000213 66 9 0.0 2.6 0.00 0.00 0.00 39 1023.8
20211016235712 66 9 0.0 0.0 0.00 0.00 0.00 39 1023.9
20211016235649 67 9 0.0 0.0 0.00 0.00 0.00 39 1023.9
20211016235212 67 9 0.0 0.0 0.00 0.00 0.00 38 1023.9
20211016235049 67 9 0.0 0.0 0.00 0.00 0.00 38 1023.9
20211016234712 67 9 0.0 0.0 0.00 0.00 0.00 38 1023.9
20211016234449 67 9 0.0 0.9 0.00 0.00 0.00 37 1023.9
20211016234212 68 9 0.0 2.6 0.00 0.00 0.00 37 1023.9
20211016233848 68 9 1.7 1.7 0.00 0.00 0.00 37 1024.0
20211016233248 68 9 2.6 2.6 0.00 0.00 0.00 36 1024.0
20211016232712 69 11 0.0 0.9 0.00 0.00 0.00 36 1024.0
20211016232649 69 11 0.0 1.7 0.00 0.00 0.00 35 1024.0
20211016232212 69 12 0.9 1.7 0.00 0.00 0.00 36 1024.0
20211016232050 69 12 0.0 0.0 0.00 0.00 0.00 36 1024.0
20211016231713 70 11 0.0 0.0 0.00 0.00 0.00 35 1023.9
20211016231449 70 12 0.0 1.7 0.00 0.00 0.00 35 1023.9
20211016231212 70 11 0.9 2.6 0.00 0.00 0.00 34 1023.9
20211016230850 70 32 1.7 2.6 0.00 0.00 0.00 34 1024.0
20211016230711 70 46 1.7 3.5 0.00 0.00 0.00 33 1023.9
20211016230249 71 344 0.9 2.6 0.00 0.00 0.00 33 1024.0
20211016230212 71 344 0.9 2.6 0.00 0.00 0.00 33 1024.0
20211016225711 71 311 2.6 3.5 0.00 0.00 0.00 33 1023.8
20211016225648 71 345 1.7 2.6 0.00 0.00 0.00 33 1023.9
20211016225048 71 14 0.0 1.7 0.00 0.00 0.00 33 1023.8
20211016224712 71 13 0.9 2.6 0.00 0.00 0.00 33 1023.8
20211016224448 71 334 2.6 3.5 0.00 0.00 0.00 32 1023.9
20211016223848 72 326 1.7 4.3 0.00 0.00 0.00 30 1024.0
20211016223711 72 306 1.7 3.5 0.00 0.00 0.00 30 1023.9
20211016223249 72 355 2.6 8.7 0.00 0.00 0.00 31 1024.0
20211016223211 72 355 2.6 8.7 0.00 0.00 0.00 31 1024.0
20211016222712 72 350 0.0 5.2 0.00 0.00 0.00 32 1024.0
20211016222653 72 355 2.6 7.8 0.00 0.00 0.00 32 1024.0
20211016222050 72 350 2.6 2.6 0.00 0.00 0.00 31 1024.0
20211016221712 72 330 2.6 4.3 0.00 0.00 0.00 31 1024.0
20211016221450 72 34 3.5 3.5 0.00 0.00 0.00 31 1024.0
20211016221213 72 19 2.6 3.5 0.00 0.00 0.00 31 1024.0
20211016220848 72 315 0.0 4.3 0.00 0.00 0.00 31 1024.0
20211016220712 72 355 2.6 3.5 0.00 0.00 0.00 31 1024.0
20211016220249 72 9 0.0 2.6 0.00 0.00 0.00 32 1024.0
20211016220212 72 9 0.0 2.6 0.00 0.00 0.00 32 1024.0
20211016215649 72 337 1.7 2.6 0.00 0.00 0.00 31 1024.0
20211016215212 72 325 7.8 7.8 0.00 0.00 0.00 32 1024.1
20211016215049 72 13 2.6 5.2 0.00 0.00 0.00 31 1024.0
20211016214713 72 355 1.7 5.2 0.00 0.00 0.00 31 1024.0
20211016214448 72 325 1.7 7.0 0.00 0.00 0.00 31 1024.1
20211016214212 72 337 2.6 5.2 0.00 0.00 0.00 31 1024.0
20211016213848 72 311 2.6 3.5 0.00 0.00 0.00 31 1024.1
20211016213713 72 332 0.0 3.5 0.00 0.00 0.00 31 1024.1
20211016213248 72 309 1.7 3.5 0.00 0.00 0.00 31 1024.2
20211016213211 72 309 1.7 3.5 0.00 0.00 0.00 31 1024.2
20211016212649 72 347 5.2 8.7 0.00 0.00 0.00 30 1024.3
20211016212212 72 324 7.8 8.7 0.00 0.00 0.00 30 1024.4
20211016212049 72 313 2.6 8.7 0.00 0.00 0.00 31 1024.3
20211016211712 72 24 3.5 7.0 0.00 0.00 0.00 31 1024.4
20211016211449 72 45 2.6 4.3 0.00 0.00 0.00 32 1024.4
20211016211212 72 360 6.1 7.0 0.00 0.00 0.00 31 1024.4
20211016210849 72 340 2.6 8.7 0.00 0.00 0.00 31 1024.5
20211016210714 72 309 2.6 4.3 0.00 0.00 0.00 31 1024.6
20211016210249 72 355 3.5 4.3 0.00 0.00 0.00 31 1024.5
20211016210211 72 355 3.5 4.3 0.00 0.00 0.00 31 1024.5
20211016205712 72 324 8.7 9.6 0.00 0.00 0.00 30 1024.6
20211016205648 72 355 1.7 3.5 0.00 0.00 0.00 31 1024.7
20211016205049 72 350 4.3 7.8 0.00 0.00 0.00 31 1024.6
20211016204448 72 325 2.6 3.5 0.00 0.00 0.00 33 1024.6
20211016203849 72 330 0.9 5.2 0.00 0.00 0.00 31 1024.7
20211016203711 72 310 5.2 5.2 0.00 0.00 0.00 31 1024.7
20211016203249 72 342 4.3 4.3 0.00 0.00 0.00 31 1024.7
20211016202650 72 344 0.9 3.5 0.00 0.00 0.00 32 1024.8
20211016202049 72 338 2.6 3.5 0.00 0.00 0.00 33 1024.8
20211016201712 72 5 1.7 8.7 0.00 0.00 0.00 32 1025.0
20211016201448 72 35 5.2 7.8 0.00 0.00 0.00 33 1024.9
20211016201212 72 323 0.9 2.6 0.00 0.00 0.00 32 1024.9
20211016200849 72 26 1.7 2.6 0.00 0.00 0.00 33 1025.0
20211016200713 72 30 1.7 5.2 0.00 0.00 0.00 33 1024.9
20211016200248 72 334 0.0 0.9 0.00 0.00 0.00 33 1024.9
20211016200213 72 334 0.0 0.9 0.00 0.00 0.00 33 1024.9
20211016195711 71 292 2.6 7.0 0.00 0.00 0.00 33 1025.2
20211016195649 71 32 2.6 7.0 0.00 0.00 0.00 33 1025.2
20211016195213 71 346 0.0 7.8 0.00 0.00 0.00 32 1025.2
20211016195049 71 360 5.2 7.0 0.00 0.00 0.00 34 1025.1
20211016194712 71 24 0.9 5.2 0.00 0.00 0.00 33 1025.1
20211016194449 71 338 5.2 8.7 0.00 0.00 0.00 33 1025.1
20211016193848 71 69 0.0 0.9 0.00 0.00 0.00 34 1025.3
20211016193249 71 349 2.6 4.3 0.00 0.00 0.00 33 1025.3
20211016193211 71 349 2.6 4.3 0.00 0.00 0.00 33 1025.3
20211016192711 71 34 1.7 5.2 0.00 0.00 0.00 32 1025.4
20211016192649 71 334 1.7 7.0 0.00 0.00 0.00 33 1025.5
20211016192212 71 308 7.8 12.2 0.00 0.00 0.00 34 1025.5
20211016192050 71 350 4.3 5.2 0.00 0.00 0.00 35 1025.6
20211016191450 71 333 1.7 2.6 0.00 0.00 0.00 35 1025.6
20211016191214 70 323 0.9 4.3 0.00 0.00 0.00 35 1025.6
20211016190848 70 323 2.6 3.5 0.00 0.00 0.00 35 1025.7
20211016190712 70 5 0.9 4.3 0.00 0.00 0.00 34 1025.7
20211016190248 70 336 8.7 8.7 0.00 0.00 0.00 35 1025.7
20211016190212 70 336 8.7 8.7 0.00 0.00 0.00 35 1025.7
20211016185713 70 325 0.0 4.3 0.00 0.00 0.00 35 1025.7
20211016185650 70 331 3.5 5.2 0.00 0.00 0.00 36 1025.8
20211016185213 70 13 4.3 7.0 0.00 0.00 0.00 35 1025.8
20211016185050 70 42 2.6 8.7 0.00 0.00 0.00 35 1025.8
20211016184449 70 11 0.9 8.7 0.00 0.00 0.00 35 1026.0
20211016184213 70 347 3.5 8.7 0.00 0.00 0.00 35 1026.1
20211016183849 70 5 3.5 4.3 0.00 0.00 0.00 35 1026.2
20211016183249 69 5 7.0 7.0 0.00 0.00 0.00 38 1026.3
20211016183213 69 5 7.0 7.0 0.00 0.00 0.00 38 1026.3
20211016182712 69 360 3.5 8.7 0.00 0.00 0.00 35 1026.5
20211016182649 69 355 2.6 8.7 0.00 0.00 0.00 36 1026.5
20211016182050 69 5 2.6 3.5 0.00 0.00 0.00 37 1026.6
20211016181450 69 17 2.6 5.2 0.00 0.00 0.00 37 1026.7
20211016181212 69 72 2.6 4.3 0.00 0.00 0.00 38 1026.7
20211016180849 69 346 2.6 4.3 0.00 0.00 0.00 36 1026.8
20211016180712 69 322 1.7 6.1 0.00 0.00 0.00 36 1026.8
20211016180248 69 311 2.6 8.7 0.00 0.00 0.00 37 1026.8
20211016180212 69 311 2.6 8.7 0.00 0.00 0.00 37 1026.8
20211016175712 69 291 2.6 7.8 0.00 0.00 0.00 38 1026.8
20211016175650 69 337 0.0 7.0 0.00 0.00 0.00 38 1026.9
20211016175213 69 355 5.2 8.7 0.00 0.00 0.00 39 1026.8
20211016175050 69 345 0.9 2.6 0.00 0.00 0.00 37 1026.8
20211016174712 69 345 7.8 7.8 0.00 0.00 0.00 38 1026.9
20211016174449 69 21 0.0 4.3 0.00 0.00 0.00 37 1026.9
20211016173848 68 32 1.7 2.6 0.00 0.00 0.00 39 1027.0
20211016173712 68 34 0.0 4.3 0.00 0.00 0.00 38 1027.0
20211016173249 68 25 3.5 3.5 0.00 0.00 0.00 36 1027.0
20211016173213 68 25 3.5 3.5 0.00 0.00 0.00 36 1027.0
20211016172714 68 5 2.6 4.3 0.00 0.00 0.00 38 1027.1
20211016172649 68 360 0.0 3.5 0.00 0.00 0.00 38 1027.1
20211016172211 68 330 2.6 7.0 0.00 0.00 0.00 37 1027.1
20211016172049 68 10 7.8 7.8 0.00 0.00 0.00 39 1027.2
20211016171713 68 9 5.2 7.8 0.00 0.00 0.00 40 1027.1
20211016171450 67 331 1.7 5.2 0.00 0.00 0.00 39 1027.1
20211016170849 67 344 1.7 10.4 0.00 0.00 0.00 38 1027.4
20211016170250 67 318 0.0 2.6 0.00 0.00 0.00 39 1027.4
20211016165712 67 344 0.9 3.5 0.00 0.00 0.00 40 1027.5
20211016165649 67 344 5.2 7.8 0.00 0.00 0.00 40 1027.4
20211016165212 66 16 3.5 4.3 0.00 0.00 0.00 41 1027.4
20211016165048 66 342 0.0 2.6 0.00 0.00 0.00 45 1027.3
20211016164448 66 35 2.6 4.3 0.00 0.00 0.00 44 1027.4
20211016163850 66 345 1.7 1.7 0.00 0.00 0.00 45 1027.3
20211016163249 66 320 4.3 7.0 0.00 0.00 0.00 44 1027.4
20211016163213 66 320 4.3 7.0 0.00 0.00 0.00 44 1027.4
20211016162713 65 337 2.6 5.2 0.00 0.00 0.00 45 1027.4
20211016162649 65 316 2.6 7.0 0.00 0.00 0.00 45 1027.3
20211016162213 65 21 4.3 5.2 0.00 0.00 0.00 44 1027.4
20211016162050 65 69 0.0 5.2 0.00 0.00 0.00 46 1027.3
20211016161448 65 25 2.6 2.6 0.00 0.00 0.00 46 1027.4
20211016161213 65 46 2.6 3.5 0.00 0.00 0.00 47 1027.3